Location: Unspecified
(0.0000°N, 0.0000°E)
Time: 01:26:09
(UTC+00:00)

Transit 4A - Pass Details

Date: 26 November 2019
Orbit: 870 x 975 km, 66.8° (Epoch: 11 December)

Event Time Altitude Azimuth Distance (km) Brightness Sun altitude
Rises 06:33:50 0° 344° (NNW) 3,440 10.5 10.9°
Reaches altitude 10° 06:36:18 10° 345° (NNW) 2,504 9.9 11.5°
Maximum altitude 06:42:03 76° 70° (ENE) 900 8.3 12.8°
Drops below altitude 10° 06:47:55 10° 156° (SSE) 2,542 11.0 14.2°
Sets 06:50:26 0° 157° (SSE) 3,496 11.6 14.8°
